QPF
0.00 0.00 0.00 0.00 0.00 0.00 0.00 0.00 0.00 0.00 0.00 0.00 0.00 0.00 0.00 0.00 0.00 0.00 0.00 0.00 0.00 0.00 0.00 0.00 0.00 0.00 0.00 0.00 0.00 0.00 0.00 0.00 0.00 0.00 0.00 0.00 0.00 0.00 0.00 0.00 0.00 0.00 0.01 0.01
0.00 0.00 0.00 0.00 0.00 0.00 0.00 0.00 0.00 0.00 0.00 0.00 0.00 0.00 0.00 0.00 0.00 0.00 0.00 0.00 0.00 0.00 0.00 0.00 0.00 0.00 0.00 0.00 0.00 0.00 0.00 0.00 0.00 0.00 0.00 0.00 0.00 0.00 0.00 0.00 0.00 0.00 0.00 0.04
0.00 0.00 0.00 0.00 0.00 0.00 0.00 0.00 0.00 0.00 0.00 0.00 0.00 0.00 0.00 0.00 0.00 0.00 0.00 0.00 0.00 0.00 0.00 0.00 0.00 0.00 0.00 0.00 0.00 0.00 0.00 0.00 0.00 0.00 0.00 0.00 0.00 0.00 0.00 0.00 0.00 0.00 0.02 0.07
0.00 0.00 0.00 0.00 0.00 0.00 0.00 0.00 0.00 0.00 0.00 0.00 0.00 0.00 0.00 0.00 0.00 0.00 0.00 0.00 0.00 0.00 0.00 0.00 0.00 0.00 0.00 0.00 0.00 0.00 0.00 0.00 0.00 0.00 0.00 0.00 0.00 0.00 0.00 0.00 0.00 0.00 0.04 0.02
0.00 0.00 0.00 0.00 0.00 0.00 0.00 0.00 0.00 0.00 0.00 0.00 0.00 0.00 0.00 0.00 0.00 0.00 0.00 0.00 0.00 0.00 0.00 0.00 0.00 0.00 0.00 0.00 0.00 0.00 0.00 0.00 0.00 0.00 0.00 0.00 0.00 0.00 0.00 0.00 0.00 0.04 0.09 0.01
0.00 0.00 0.00 0.00 0.00 0.00 0.00 0.00 0.00 0.00 0.00 0.00 0.00 0.00 0.00 0.00 0.00 0.00 0.00 0.00 0.00 0.00 0.00 0.00 0.00 0.00 0.00 0.00 0.00 0.00 0.00 0.00 0.00 0.00 0.00 0.00 0.00 0.00 0.00 0.00 0.02 0.04 0.01 0.04
0.00 0.00 0.00 0.00 0.00 0.00 0.00 0.00 0.00 0.00 0.00 0.00 0.00 0.00 0.00 0.00 0.00 0.00 0.00 0.00 0.00 0.00 0.00 0.00 0.00 0.00 0.00 0.00 0.00 0.00 0.00 0.00 0.00 0.00 0.00 0.00 0.00 0.00 0.00 0.02 0.03 0.01 0.00 0.06
0.00 0.00 0.00 0.00 0.00 0.00 0.00 0.00 0.00 0.00 0.00 0.00 0.00 0.00 0.00 0.00 0.00 0.00 0.00 0.00 0.00 0.00 0.00 0.00 0.00 0.00 0.00 0.00 0.00 0.00 0.00 0.00 0.00 0.00 0.00 0.00 0.00 0.00 0.00 0.01 0.00 0.00 0.00 0.00
0.00 0.00 0.00 0.00 0.00 0.00 0.00 0.00 0.00 0.00 0.00 0.00 0.00 0.00 0.00 0.00 0.00 0.00 0.00 0.00 0.00 0.00 0.00 0.00 0.00 0.00 0.00 0.00 0.00 0.00 0.00 0.00 0.00 0.00 0.00 0.00 0.00 0.00 0.00 0.02 0.01 0.00 0.00 0.00
0.00 0.00 0.00 0.00 0.00 0.00 0.00 0.00 0.00 0.00 0.00 0.00 0.00 0.00 0.00 0.00 0.00 0.00 0.00 0.00 0.06 0.14 0.05 0.02 0.00 0.00 0.00 0.00 0.00 0.00 0.00 0.00 0.00 0.00 0.00 0.00 0.00 0.00 0.00 0.01 0.00 0.01 0.00 0.00
0.00 0.00 0.00 0.00 0.00 0.00 0.00 0.00 0.00 0.00 0.00 0.00 0.00 0.00 0.00 0.00 0.00 0.00 0.03 0.14 0.68 0.71 0.52 0.19 0.00 0.00 0.00 0.00 0.00 0.00 0.00 0.00 0.00 0.00 0.00 0.00 0.00 0.00 0.00 0.00 0.00 0.00 0.00 0.00
0.00 0.00 0.00 0.00 0.00 0.00 0.00 0.00 0.00 0.00 0.00 0.00 0.01 0.00 0.00 0.00 0.00 0.05 0.11 0.92 0.82 0.14 0.16 0.05 0.00 0.00 0.00 0.00 0.00 0.00 0.00 0.00 0.00 0.00 0.00 0.00 0.00 0.00 0.00 0.00 0.00 0.00 0.00 0.00
0.00 0.00 0.00 0.00 0.00 0.00 0.00 0.00 0.01 0.00 0.00 0.01 0.01 0.01 0.00 0.00 0.11 0.17 0.08 0.11 0.29 0.28 0.12 0.02 0.00 0.00 0.00 0.00 0.00 0.00 0.00 0.00 0.00 0.01 0.08 0.09 0.02 0.00 0.00 0.00 0.00 0.00 0.00 0.00
0.00 0.00 0.00 0.00 0.00 0.00 0.00 0.00 0.00 0.00 0.00 0.01 0.01 0.01 0.04 0.02 0.02 0.07 0.03 0.07 0.19 0.21 0.11 0.08 0.05 0.04 0.03 0.02 0.01 0.00 0.00 0.00 0.02 0.11 0.15 0.10 0.03 0.00 0.00 0.00 0.00 0.00 0.00 0.00
0.00 0.00 0.00 0.00 0.00 0.00 0.00 0.00 0.00 0.00 0.00 0.00 0.00 0.01 0.08 0.53 0.40 0.26 0.33 0.31 0.27 0.10 0.22 0.30 0.16 0.18 0.34 0.18 0.11 0.10 0.07 0.17 0.23 0.33 0.39 0.52 0.49 0.42 0.20 0.02 0.00 0.00 0.00 0.00
0.00 0.00 0.00 0.00 0.00 0.00 0.00 0.00 0.00 0.00 0.00 0.00 0.00 0.07 0.25 0.43 0.26 0.27 0.31 0.37 0.20 0.09 0.24 0.52 0.33 0.15 0.20 0.46 0.33 0.26 0.41 0.53 0.62 0.79 0.79 0.89 0.99 1.14 0.95 0.18 0.05 0.00 0.00 0.00
0.00 0.00 0.00 0.00 0.00 0.00 0.00 0.00 0.00 0.00 0.00 0.02 0.03 0.04 0.21 0.09 0.05 0.03 0.02 0.11 0.16 0.01 0.06 0.07 0.09 0.08 0.04 0.11 0.07 0.06 0.24 0.29 0.14 0.51 1.49 1.64 1.54 1.65 1.62 0.38 0.09 0.02 0.02 0.01
0.00 0.00 0.00 0.00 0.00 0.00 0.00 0.00 0.01 0.01 0.04 0.18 0.12 0.02 0.00 0.01 0.03 0.04 0.05 0.08 0.14 0.03 0.01 0.01 0.03 0.02 0.01 0.01 0.00 0.02 0.10 0.43 0.22 0.09 0.49 0.87 0.96 1.15 0.86 0.30 0.12 0.17 0.16 0.04
0.00 0.00 0.00 0.00 0.00 0.00 0.02 0.02 0.18 0.13 0.12 0.16 0.04 0.00 0.01 0.01 0.18 0.27 0.16 0.16 0.17 0.18 0.04 0.02 0.00 0.00 0.01 0.01 0.00 0.00 0.01 0.02 0.04 0.09 0.16 0.16 0.15 0.26 0.28 0.29 0.29 0.33 0.33 0.22
0.00 0.00 0.05 0.05 0.02 0.00 0.08 0.03 0.16 0.07 0.05 0.01 0.00 0.00 0.00 0.02 0.25 0.59 0.65 0.36 0.16 0.02 0.00 0.00 0.00 0.00 0.00 0.01 0.00 0.00 0.00 0.00 0.00 0.00 0.01 0.04 0.12 0.20 0.25 0.28 0.29 0.33 0.36 0.35
0.00 0.02 0.12 0.11 0.08 0.06 0.08 0.03 0.05 0.09 0.08 0.00 0.00 0.00 0.00 0.05 0.27 0.19 0.44 0.26 0.06 0.02 0.00 0.01 0.00 0.00 0.01 0.01 0.00 0.00 0.00 0.00 0.00 0.00 0.00 0.00 0.00 0.01 0.04 0.11 0.19 0.20 0.23 0.28
0.02 0.05 0.07 0.12 0.13 0.09 0.11 0.16 0.16 0.17 0.02 0.00 0.00 0.02 0.03 0.08 0.29 0.27 0.18 0.11 0.04 0.02 0.01 0.00 0.01 0.01 0.01 0.01 0.00 0.00 0.00 0.00 0.00 0.00 0.00 0.00 0.00 0.00 0.00 0.00 0.05 0.81 1.18 1.32
0.02 0.04 0.07 0.10 0.12 0.03 0.13 0.16 0.02 0.00 0.01 0.00 0.00 0.03 0.08 0.30 0.25 0.27 0.13 0.05 0.02 0.02 0.01 0.00 0.00 0.00 0.00 0.00 0.00 0.00 0.00 0.00 0.00 0.00 0.00 0.00 0.00 0.00 0.00 0.00 0.01 0.36 0.62 0.67
0.00 0.00 0.01 0.01 0.01 0.00 0.00 0.01 0.00 0.00 0.01 0.01 0.02 0.01 0.04 0.07 0.13 0.02 0.01 0.02 0.02 0.00 0.00 0.00 0.00 0.00 0.00 0.00 0.00 0.00 0.00 0.00 0.00 0.00 0.00 0.00 0.00 0.00 0.00 0.00 0.00 0.01 0.02 0.01
0.00 0.00 0.00 0.00 0.00 0.00 0.01 0.02 0.01 0.00 0.03 0.02 0.02 0.03 0.00 0.00 0.01 0.03 0.04 0.02 0.02 0.01 0.01 0.01 0.00 0.00 0.00 0.00 0.00 0.00 0.00 0.00 0.00 0.00 0.00 0.00 0.00 0.00 0.00 0.00 0.00 0.00 0.00 0.00
0.00 0.00 0.00 0.00 0.00 0.01 0.03 0.06 0.04 0.03 0.05 0.00 0.00 0.00 0.00 0.00 0.00 0.00 0.00 0.00 0.00 0.00 0.00 0.00 0.00 0.00 0.00 0.00 0.00 0.00 0.00 0.00 0.00 0.00 0.00 0.00 0.00 0.00 0.00 0.00 0.00 0.00 0.00 0.00
MSLP
1000.54 1000.65 1000.08 999.76 999.31 998.70 998.17 997.46 996.55 995.94 995.48 994.93 994.18 993.28 992.87 992.55 992.50 992.56 992.61 992.84 993.23 993.69 994.01 995.04 996.36 998.07 999.84 1001.56 1003.14 1004.29 1005.23 1005.91 1006.70 1007.38 1008.00 1008.33 1008.59 1008.82 1008.93 1008.92 1008.99 1009.67 1010.49 1011.19
1000.09 999.20 998.78 998.36 998.03 997.89 997.65 997.12 996.36 995.67 995.33 995.05 994.55 993.86 993.46 992.93 992.62 992.58 992.57 992.54 992.69 993.13 993.56 993.99 995.46 997.05 998.73 1000.50 1002.07 1003.50 1004.61 1005.44 1006.06 1006.74 1007.40 1007.81 1008.06 1008.25 1008.52 1008.67 1008.77 1009.16 1009.65 1010.49
998.57 997.88 997.39 997.14 997.13 997.14 996.86 996.52 996.06 995.64 995.42 995.14 994.89 993.71 993.50 993.06 992.72 992.55 992.38 992.24 992.25 992.75 993.02 993.21 994.63 995.96 997.82 999.56 1000.93 1002.39 1003.72 1004.75 1005.48 1006.23 1006.94 1007.31 1007.54 1007.84 1008.15 1008.20 1008.38 1008.74 1009.06 1009.70
998.03 997.38 996.97 997.01 997.04 997.04 996.33 996.01 995.96 995.70 995.49 994.82 995.00 993.23 993.03 992.92 992.46 992.18 991.87 991.63 991.44 991.61 992.08 992.42 993.82 995.34 996.65 998.21 999.99 1001.54 1002.90 1003.95 1004.90 1005.61 1006.00 1006.32 1006.39 1006.77 1007.13 1007.50 1007.63 1008.07 1008.54 1009.23
997.67 997.13 996.87 996.71 996.71 996.73 996.47 996.39 996.28 996.18 995.83 995.38 994.83 994.20 993.29 993.43 992.93 992.55 992.33 991.50 990.65 990.80 990.92 991.43 993.04 994.27 995.46 997.18 998.90 1000.60 1002.10 1003.22 1004.04 1004.64 1005.10 1005.65 1005.97 1006.23 1006.52 1006.80 1007.11 1007.45 1008.20 1008.71
997.74 997.18 996.70 996.33 996.52 996.90 996.74 996.58 996.45 995.99 995.31 994.72 993.91 994.59 994.50 994.69 994.25 994.13 993.90 992.44 991.68 990.61 990.16 990.42 992.05 993.75 995.18 996.63 998.48 999.97 1001.39 1002.57 1003.40 1004.09 1004.44 1004.92 1005.35 1005.61 1005.91 1006.22 1006.52 1007.16 1007.84 1008.42
997.04 995.97 995.44 996.11 996.45 996.42 996.34 996.20 995.68 995.22 994.50 993.90 994.13 994.41 994.21 994.24 994.32 994.73 994.47 993.63 992.59 991.00 990.23 989.37 991.39 992.98 994.49 995.89 997.40 999.24 1000.56 1001.70 1002.72 1003.48 1003.96 1004.17 1004.69 1005.27 1005.44 1005.69 1006.22 1006.85 1007.39 1007.93
997.42 996.23 996.14 996.18 996.30 996.23 996.32 996.29 996.10 995.51 995.15 994.74 994.66 995.17 994.64 994.44 994.46 994.40 994.46 994.83 994.29 991.56 991.35 989.90 991.04 992.27 993.70 995.14 996.54 998.09 999.52 1000.69 1001.65 1002.55 1003.30 1003.66 1004.17 1004.64 1005.11 1005.17 1005.69 1006.35 1006.73 1007.19
999.12 997.97 997.28 996.79 996.19 995.97 995.84 995.84 995.61 995.58 995.87 995.26 995.15 995.67 995.21 994.91 994.95 995.76 995.42 995.76 997.24 996.01 993.52 991.94 990.81 991.77 992.84 994.06 995.33 996.65 998.32 999.69 1000.78 1001.67 1002.49 1003.07 1003.24 1003.53 1004.12 1004.57 1005.10 1005.67 1005.98 1006.51
1000.12 999.27 998.39 997.22 996.50 995.77 995.67 995.94 995.91 995.95 996.28 996.13 995.82 996.58 995.45 996.31 996.92 997.35 997.96 998.47 998.72 997.95 997.55 997.08 993.70 990.93 992.67 993.18 994.19 995.58 997.00 998.29 999.62 1000.68 1001.43 1001.98 1002.33 1002.78 1003.32 1004.02 1004.77 1005.18 1005.54 1005.85
1000.74 1000.05 998.96 997.98 996.84 996.01 996.04 996.16 996.55 997.50 998.58 998.30 997.62 997.57 998.44 998.43 999.83 1001.45 1002.74 1003.02 1002.83 999.39 998.60 999.17 995.36 993.82 993.00 993.02 993.65 994.63 996.06 997.58 998.78 999.66 1000.35 1001.08 1001.68 1002.18 1002.99 1003.31 1004.00 1004.52 1005.04 1005.55
1001.29 1000.97 1000.04 999.13 998.05 997.28 996.94 997.79 998.23 998.85 999.67 999.45 1000.49 998.87 999.14 998.50 1000.71 1003.06 1004.11 1004.39 1005.70 1004.87 1002.04 997.36 996.30 996.10 995.44 993.67 993.35 993.88 995.02 996.51 997.80 998.65 999.51 1000.42 1001.42 1002.05 1002.72 1002.99 1003.47 1004.15 1004.93 1005.54
1002.39 1002.01 1001.23 999.65 998.02 997.79 998.35 998.03 998.85 999.58 999.80 999.74 1001.31 999.26 999.65 999.74 1001.07 1003.21 1002.61 1004.53 1004.59 1002.77 1001.05 999.60 997.96 997.32 997.84 997.10 995.52 994.66 995.27 996.24 997.49 998.84 1000.00 1001.17 1001.71 1001.99 1002.08 1002.11 1002.49 1003.14 1004.11 1004.84
1002.87 1002.62 1002.26 1001.03 999.84 999.08 998.82 998.32 998.12 998.69 998.84 999.10 999.66 999.97 1000.41 1001.01 1001.32 1003.63 1003.45 1002.19 1001.96 1002.37 1001.93 1001.12 999.73 999.14 999.80 999.14 998.38 997.66 997.52 997.45 997.95 999.02 1000.01 1000.73 1000.86 1001.14 1001.50 1001.69 1002.13 1002.62 1003.10 1003.80
1002.67 1002.32 1002.01 1001.30 1000.53 999.93 999.23 998.52 997.96 997.64 997.96 998.41 998.88 1000.01 1001.99 1002.22 1002.16 1003.38 1003.81 1004.12 1002.51 1001.96 1002.05 1001.48 1000.74 1000.10 1000.09 1000.59 999.77 999.29 999.91 999.96 1000.34 999.52 1000.04 1001.02 1001.98 1002.09 1001.07 1000.74 1001.36 1002.72 1003.18 1003.12
1002.88 1002.50 1002.47 1001.77 1001.26 1000.27 999.16 998.33 997.96 997.90 997.80 998.01 999.44 1001.55 1003.87 1002.95 1002.92 1003.37 1002.16 1003.43 1002.54 1002.51 1002.70 1001.43 1000.48 999.97 1001.46 1002.78 1002.04 1001.06 1000.69 1001.57 1002.17 1002.73 1003.33 1003.77 1003.59 1004.10 1003.10 999.08 1001.83 1001.94 1003.13 1003.27
1002.75 1002.71 1002.72 1001.84 1001.45 1000.34 999.26 998.52 998.15 998.55 999.29 1000.14 1001.12 1002.56 1002.82 1004.10 1003.06 1002.99 1002.87 1002.84 1002.65 1002.06 1002.01 1001.80 1001.93 1000.40 1001.05 1003.14 1004.07 1002.76 1002.42 1001.36 1001.87 1003.20 1002.40 1003.08 1003.56 1003.10 1000.67 1000.20 1003.66 1002.45 1003.73 1003.46
1001.90 1002.32 1002.76 1002.38 1002.05 1000.50 999.20 999.06 999.81 1000.42 1002.09 1003.12 1003.42 1002.23 1002.17 1003.26 1003.55 1003.65 1003.56 1002.94 1002.81 1002.56 1002.43 1002.55 1002.95 1002.55 1002.25 1002.49 1003.55 1002.71 1002.84 1001.97 1001.60 1000.89 1002.19 1002.82 1003.81 1002.28 1005.44 1003.89 1002.28 1003.89 1003.88 1003.52
1000.94 1001.87 1002.43 1002.54 1001.91 1000.73 999.76 1001.48 1002.27 1002.48 1003.42 1003.99 1003.72 1002.72 1003.02 1003.20 1003.37 1005.28 1005.60 1004.30 1003.68 1003.21 1003.61 1003.50 1003.50 1003.12 1002.90 1002.99 1002.58 1003.54 1002.52 1003.32 1002.36 1002.17 1002.48 1004.34 1004.77 1005.98 1006.69 1006.33 1004.68 1004.05 1003.43 1003.25
1001.52 1003.27 1005.71 1004.61 1004.42 1002.61 1003.41 1004.03 1004.14 1004.77 1003.55 1002.58 1003.31 1003.30 1002.95 1003.11 1004.10 1006.27 1005.29 1005.38 1004.64 1004.13 1003.88 1004.17 1003.93 1003.68 1003.79 1004.03 1003.68 1003.28 1003.83 1003.27 1004.28 1004.06 1004.40 1005.14 1005.63 1005.43 1006.34 1005.84 1004.43 1003.88 1003.54 1003.08
1002.76 1003.63 1005.07 1005.37 1005.16 1004.35 1005.24 1004.87 1004.62 1003.43 1003.48 1003.13 1003.44 1003.42 1003.71 1004.33 1005.27 1006.03 1005.90 1005.31 1005.08 1004.81 1004.39 1004.32 1004.21 1004.14 1004.26 1004.32 1004.35 1004.94 1005.10 1005.22 1005.44 1005.19 1005.34 1004.74 1004.79 1005.63 1005.56 1005.27 1004.48 1004.03 1003.76 1003.91
1003.43 1004.67 1004.82 1004.71 1004.65 1005.01 1005.54 1005.27 1006.21 1004.47 1003.33 1003.21 1003.61 1004.37 1004.48 1004.72 1005.08 1006.06 1005.82 1005.51 1005.25 1004.79 1004.57 1004.69 1004.71 1004.89 1004.99 1005.08 1005.53 1006.18 1006.24 1006.49 1006.46 1006.25 1006.17 1005.77 1005.56 1005.44 1005.00 1004.61 1004.41 1004.44 1004.27 1003.47
1004.07 1004.94 1005.24 1005.30 1004.97 1004.70 1005.12 1005.42 1004.46 1004.18 1003.95 1003.87 1004.12 1004.39 1004.21 1004.94 1005.02 1006.19 1005.86 1005.89 1005.63 1005.16 1005.01 1005.18 1005.32 1005.57 1005.89 1006.06 1006.11 1006.21 1006.82 1007.13 1007.23 1006.99 1006.64 1006.46 1006.02 1005.43 1005.18 1005.32 1005.33 1005.07 1004.17 1003.84
1004.22 1004.24 1004.57 1004.69 1004.39 1004.19 1004.03 1004.62 1004.32 1004.49 1004.58 1004.32 1004.32 1004.69 1004.72 1004.96 1005.41 1005.75 1006.07 1006.42 1005.91 1005.74 1005.61 1005.63 1005.72 1006.06 1006.39 1006.19 1006.20 1006.32 1006.45 1006.75 1006.40 1006.26 1006.24 1006.09 1005.86 1005.19 1005.20 1005.15 1004.47 1004.17 1004.45 1004.72
1003.07 1003.62 1003.90 1004.00 1003.75 1003.90 1004.19 1004.67 1004.88 1004.62 1004.83 1004.60 1004.76 1005.08 1005.25 1005.36 1005.55 1005.82 1006.25 1006.24 1006.17 1006.12 1006.20 1006.12 1006.05 1006.37 1006.57 1006.48 1006.46 1006.44 1006.51 1006.35 1006.01 1005.79 1005.56 1005.36 1004.64 1004.76 1004.73 1004.73 1004.41 1004.77 1005.48 1005.90
1003.06 1003.04 1003.15 1003.26 1003.43 1003.42 1004.10 1005.33 1005.44 1005.41 1005.20 1004.86 1004.91 1005.38 1005.62 1005.75 1006.05 1006.46 1006.80 1006.94 1006.66 1006.51 1006.60 1006.55 1006.72 1006.78 1006.70 1006.58 1006.33 1006.35 1006.32 1006.36 1006.35 1006.26 1005.75 1005.62 1005.48 1005.27 1005.09 1005.19 1005.41 1005.95 1006.18 1005.61
Thickness
5831 5808 5797 5809 5820 5823 5819 5813 5812 5830 5848 5840 5838 5849 5865 5883 5886 5883 5888 5891 5889 5891 5905 5898 5891 5885 5875 5865 5853 5846 5838 5835 5829 5821 5813 5809 5804 5803 5802 5802 5801 5795 5787 5780
5814 5803 5825 5834 5833 5823 5817 5807 5810 5828 5840 5833 5831 5830 5850 5865 5870 5875 5877 5880 5884 5886 5894 5902 5888 5886 5877 5867 5859 5848 5841 5837 5832 5826 5819 5815 5811 5808 5805 5804 5803 5799 5792 5784
5811 5825 5842 5834 5826 5814 5816 5807 5809 5809 5825 5829 5819 5813 5827 5849 5861 5869 5874 5880 5882 5878 5883 5897 5885 5885 5880 5869 5864 5854 5845 5839 5835 5829 5822 5818 5816 5811 5804 5804 5802 5801 5797 5790
5819 5837 5828 5820 5812 5814 5798 5828 5818 5811 5802 5783 5821 5781 5817 5834 5845 5857 5865 5873 5877 5883 5887 5895 5884 5880 5881 5877 5870 5860 5850 5843 5838 5833 5826 5821 5817 5810 5811 5806 5808 5802 5799 5792
5809 5818 5814 5806 5810 5819 5802 5820 5809 5804 5793 5791 5795 5782 5804 5822 5818 5829 5831 5857 5881 5887 5891 5894 5883 5884 5889 5881 5873 5863 5852 5846 5841 5838 5833 5825 5819 5819 5817 5813 5808 5805 5797 5793
5814 5835 5824 5815 5821 5816 5816 5803 5799 5800 5797 5770 5798 5774 5774 5784 5790 5795 5816 5841 5857 5886 5895 5901 5890 5886 5882 5879 5871 5861 5852 5846 5843 5838 5836 5829 5823 5820 5816 5811 5810 5803 5798 5792
5810 5820 5839 5827 5800 5813 5805 5788 5762 5764 5775 5775 5807 5778 5784 5794 5802 5798 5808 5826 5847 5880 5893 5903 5884 5879 5879 5873 5869 5861 5853 5846 5843 5838 5835 5833 5827 5820 5817 5814 5808 5801 5795 5789
5778 5783 5811 5821 5802 5788 5790 5787 5760 5734 5750 5764 5797 5752 5775 5804 5805 5813 5819 5821 5837 5859 5880 5895 5887 5881 5878 5872 5868 5862 5855 5849 5847 5842 5835 5833 5829 5822 5818 5818 5812 5805 5799 5794
5759 5768 5806 5808 5816 5809 5791 5778 5808 5778 5782 5770 5777 5776 5797 5803 5803 5801 5818 5818 5796 5807 5861 5869 5869 5876 5873 5871 5870 5867 5859 5854 5848 5844 5838 5833 5833 5829 5823 5820 5815 5809 5807 5801
5766 5744 5784 5798 5808 5813 5800 5807 5770 5781 5742 5737 5768 5747 5774 5776 5780 5791 5786 5784 5780 5782 5799 5806 5858 5863 5870 5878 5876 5871 5865 5859 5852 5847 5843 5838 5836 5833 5828 5821 5812 5809 5807 5804
5765 5756 5761 5781 5781 5785 5786 5779 5778 5763 5747 5726 5735 5752 5758 5758 5760 5735 5722 5727 5733 5762 5758 5762 5831 5853 5866 5872 5873 5870 5863 5858 5852 5848 5845 5839 5835 5832 5825 5822 5817 5812 5808 5804
5760 5747 5731 5748 5782 5793 5785 5757 5756 5728 5716 5740 5717 5734 5761 5767 5757 5734 5719 5716 5699 5723 5740 5780 5821 5829 5841 5862 5864 5870 5866 5859 5853 5849 5843 5836 5829 5825 5820 5818 5815 5810 5802 5799
5744 5726 5708 5730 5766 5773 5751 5759 5750 5740 5737 5723 5694 5736 5764 5761 5750 5732 5749 5720 5722 5745 5763 5781 5802 5813 5814 5825 5836 5856 5856 5852 5846 5836 5825 5816 5815 5817 5818 5818 5818 5813 5804 5799
5740 5722 5709 5704 5725 5744 5731 5747 5759 5749 5730 5734 5730 5740 5738 5731 5741 5725 5731 5748 5750 5744 5755 5765 5781 5789 5788 5800 5807 5817 5823 5830 5829 5817 5815 5813 5818 5822 5818 5814 5812 5809 5806 5800
5730 5708 5720 5727 5732 5733 5734 5738 5750 5753 5753 5738 5749 5740 5712 5719 5720 5707 5710 5717 5727 5741 5745 5754 5763 5771 5777 5774 5786 5790 5788 5789 5791 5807 5807 5803 5800 5802 5809 5810 5806 5798 5797 5797
5723 5702 5708 5706 5719 5724 5724 5741 5747 5752 5760 5760 5750 5705 5693 5710 5719 5712 5723 5698 5714 5725 5730 5747 5755 5762 5757 5742 5750 5762 5768 5765 5769 5768 5762 5759 5759 5755 5745 5788 5793 5793 5786 5788
5706 5701 5693 5687 5710 5714 5706 5730 5741 5739 5738 5724 5712 5702 5703 5703 5720 5719 5724 5717 5718 5731 5735 5737 5736 5756 5752 5711 5696 5736 5746 5765 5766 5755 5738 5746 5749 5746 5732 5733 5757 5772 5769 5776
5706 5701 5697 5684 5694 5674 5728 5743 5727 5715 5686 5684 5686 5715 5721 5712 5713 5715 5712 5714 5712 5722 5727 5727 5723 5732 5742 5732 5725 5735 5739 5752 5760 5769 5746 5745 5734 5740 5715 5723 5752 5758 5761 5767
5726 5706 5693 5680 5687 5709 5730 5705 5696 5686 5671 5678 5681 5701 5705 5709 5709 5683 5683 5699 5703 5710 5709 5712 5716 5721 5728 5729 5733 5728 5744 5738 5748 5748 5744 5734 5733 5718 5716 5714 5746 5756 5757 5760
5714 5690 5642 5651 5645 5668 5669 5678 5682 5669 5668 5702 5692 5691 5693 5696 5672 5663 5680 5676 5690 5699 5706 5703 5708 5714 5716 5716 5722 5727 5722 5733 5727 5725 5722 5723 5722 5729 5720 5725 5742 5749 5751 5752
5679 5672 5647 5637 5643 5669 5660 5670 5674 5667 5672 5691 5687 5686 5682 5674 5671 5666 5669 5679 5680 5688 5696 5701 5705 5705 5708 5710 5710 5702 5704 5704 5707 5713 5709 5721 5723 5716 5717 5719 5728 5731 5734 5740
5665 5650 5654 5658 5649 5641 5660 5660 5640 5660 5685 5687 5684 5676 5671 5673 5671 5666 5671 5675 5680 5685 5692 5694 5695 5695 5696 5700 5694 5685 5688 5689 5694 5698 5698 5701 5704 5706 5711 5715 5716 5718 5724 5733
5653 5652 5643 5648 5646 5669 5660 5660 5676 5678 5674 5676 5676 5675 5678 5669 5668 5659 5659 5665 5673 5681 5685 5686 5686 5687 5685 5685 5685 5680 5675 5674 5675 5680 5685 5689 5693 5698 5702 5700 5701 5703 5711 5718
5657 5668 5650 5652 5660 5665 5672 5671 5673 5671 5665 5672 5673 5669 5670 5667 5661 5661 5657 5659 5668 5673 5677 5680 5679 5674 5671 5677 5679 5678 5677 5673 5677 5679 5679 5681 5683 5688 5689 5688 5694 5695 5693 5693
5668 5663 5654 5652 5663 5667 5666 5663 5660 5663 5663 5666 5666 5663 5662 5663 5661 5662 5659 5663 5665 5667 5669 5670 5671 5667 5664 5667 5668 5670 5669 5670 5673 5673 5676 5679 5687 5683 5682 5681 5684 5679 5676 5675
5664 5657 5652 5643 5663 5664 5659 5651 5652 5649 5651 5659 5659 5655 5656 5657 5653 5651 5648 5650 5655 5658 5658 5658 5656 5658 5658 5660 5664 5664 5664 5663 5663 5663 5669 5672 5674 5674 5674 5672 5670 5662 5658 5665